GLO9518 SBSV-SAEZ

Flight info

Callsign GLO9518
Flight time N/A
Altitude 34000
Route GILDO UZ21 VUNOX DCT LOKAM UZ85 RAXIT DCT SAVLU DCT UMRUD UN741 PAPIX DCT
Aircraft B38M/M-SDFGHIJ4J5KLORWXY/LB1

Departure

Time N/A
Airport Deputado Luiz Eduardo Magalhães International Airport (SBSV)

Arrival

Time 2026-04-28 02:32
Airport Ezeiza International Airport - Ministro Pistarini (SAEZ)
Time Latitude Longitude Altitude Speed Heading
2026-04-27 23:06 -16.84523 -41.91474 34045 ft 473 kts 217°
2026-04-27 23:06 -16.87175 -41.93543 34049 ft 473 kts 217°
2026-04-27 23:07 -16.92439 -41.97651 34050 ft 473 kts 217°
2026-04-27 23:07 -16.97716 -42.01772 34043 ft 472 kts 217°
2026-04-27 23:08 -17.02968 -42.05877 34045 ft 472 kts 217°
2026-04-27 23:08 -17.08234 -42.09995 34049 ft 472 kts 217°
2026-04-27 23:09 -17.13495 -42.14113 34054 ft 472 kts 217°
2026-04-27 23:09 -17.18752 -42.18230 34054 ft 472 kts 217°
2026-04-27 23:10 -17.23985 -42.22332 34056 ft 472 kts 217°
2026-04-27 23:10 -17.29243 -42.26456 34061 ft 472 kts 217°
2026-04-27 23:11 -17.34488 -42.30574 34063 ft 472 kts 218°
2026-04-27 23:11 -17.39763 -42.34716 34066 ft 472 kts 218°
2026-04-27 23:12 -17.44996 -42.38830 34072 ft 472 kts 218°
2026-04-27 23:12 -17.50239 -42.42955 34064 ft 472 kts 218°
2026-04-27 23:13 -17.55497 -42.47094 34068 ft 472 kts 218°
2026-04-27 23:13 -17.60736 -42.51222 34076 ft 472 kts 218°
2026-04-27 23:14 -17.65967 -42.55346 34068 ft 471 kts 218°
2026-04-27 23:14 -17.71218 -42.59489 34067 ft 471 kts 218°
2026-04-27 23:15 -17.76419 -42.63596 34065 ft 471 kts 218°
2026-04-27 23:15 -17.81639 -42.67720 34063 ft 471 kts 218°
2026-04-27 23:16 -17.86894 -42.71876 34071 ft 471 kts 218°
2026-04-27 23:16 -17.92119 -42.76011 34067 ft 470 kts 218°
2026-04-27 23:17 -17.97337 -42.80144 34065 ft 470 kts 218°
2026-04-27 23:17 -18.02568 -42.84290 34068 ft 470 kts 218°
2026-04-27 23:18 -18.07763 -42.88410 34063 ft 470 kts 218°
2026-04-27 23:18 -18.12982 -42.92553 34069 ft 470 kts 218°
2026-04-27 23:19 -18.18184 -42.96686 34068 ft 469 kts 218°
2026-04-27 23:19 -18.23402 -43.00835 34069 ft 469 kts 218°
2026-04-27 23:20 -18.28619 -43.04984 34065 ft 469 kts 218°
2026-04-27 23:20 -18.33815 -43.09121 34066 ft 468 kts 218°
2026-04-27 23:21 -18.39019 -43.13280 34074 ft 468 kts 219°
2026-04-27 23:21 -18.44161 -43.17444 34074 ft 468 kts 219°
2026-04-27 23:22 -18.49316 -43.21616 34071 ft 468 kts 219°
2026-04-27 23:22 -18.54497 -43.25812 34074 ft 468 kts 219°
2026-04-27 23:23 -18.59631 -43.29972 34075 ft 468 kts 219°
2026-04-27 23:23 -18.64805 -43.34121 34074 ft 468 kts 218°
2026-04-27 23:24 -18.70024 -43.38267 34072 ft 467 kts 218°
2026-04-27 23:24 -18.75190 -43.42377 34078 ft 463 kts 219°
2026-04-27 23:25 -18.80318 -43.46461 34075 ft 460 kts 219°
2026-04-27 23:25 -18.85414 -43.50523 34075 ft 461 kts 219°
2026-04-27 23:26 -18.90598 -43.54548 34078 ft 462 kts 218°
2026-04-27 23:26 -18.95798 -43.58535 34082 ft 462 kts 218°
2026-04-27 23:27 -19.01009 -43.62539 34088 ft 462 kts 218°
2026-04-27 23:27 -19.06205 -43.66534 34078 ft 462 kts 218°
2026-04-27 23:28 -19.11377 -43.70515 34065 ft 462 kts 218°
2026-04-27 23:28 -19.15703 -43.73847 34083 ft 463 kts 218°
2026-04-27 23:29 -19.21797 -43.78544 34068 ft 463 kts 218°
2026-04-27 23:29 -19.27005 -43.82562 34082 ft 463 kts 218°
2026-04-27 23:30 -19.32213 -43.86583 34083 ft 463 kts 218°
2026-04-27 23:30 -19.37406 -43.90596 34086 ft 464 kts 218°
2026-04-27 23:31 -19.42610 -43.94620 34115 ft 464 kts 218°
2026-04-27 23:31 -19.47599 -43.98482 34112 ft 464 kts 219°
2026-04-27 23:32 -19.52819 -44.02525 34125 ft 464 kts 219°
2026-04-27 23:32 -19.58035 -44.06542 34139 ft 465 kts 218°
2026-04-27 23:33 -19.63279 -44.10569 34124 ft 465 kts 218°
2026-04-27 23:33 -19.68494 -44.14578 34109 ft 465 kts 218°
2026-04-27 23:34 -19.73735 -44.18625 34093 ft 465 kts 219°
2026-04-27 23:34 -19.78963 -44.22667 34086 ft 465 kts 219°
2026-04-27 23:35 -19.84173 -44.26698 34080 ft 465 kts 219°
2026-04-27 23:35 -19.89394 -44.30741 34077 ft 465 kts 219°
2026-04-27 23:36 -19.94629 -44.34797 34069 ft 465 kts 219°
2026-04-27 23:36 -19.99836 -44.38836 34068 ft 465 kts 219°
2026-04-27 23:37 -20.05059 -44.42890 34073 ft 465 kts 219°
2026-04-27 23:37 -20.09406 -44.46267 34070 ft 465 kts 219°
2026-04-27 23:38 -20.14634 -44.50330 34070 ft 465 kts 219°
2026-04-27 23:38 -20.19864 -44.54397 34071 ft 464 kts 219°
2026-04-27 23:39 -20.25062 -44.58441 34070 ft 464 kts 219°
2026-04-27 23:39 -20.30266 -44.62494 34070 ft 464 kts 219°
2026-04-27 23:40 -20.35490 -44.66567 34068 ft 464 kts 219°
2026-04-27 23:40 -20.40692 -44.70626 34067 ft 464 kts 219°
2026-04-27 23:41 -20.45898 -44.74690 34070 ft 464 kts 219°
2026-04-27 23:41 -20.51091 -44.78744 34067 ft 464 kts 219°
2026-04-27 23:42 -20.56306 -44.82817 34065 ft 464 kts 219°
2026-04-27 23:42 -20.61522 -44.86894 34069 ft 463 kts 219°
2026-04-27 23:43 -20.66703 -44.90947 34071 ft 463 kts 219°
2026-04-27 23:43 -20.71904 -44.95019 34062 ft 463 kts 219°
2026-04-27 23:44 -20.77090 -44.99090 34068 ft 463 kts 219°
2026-04-27 23:44 -20.82270 -45.03162 34063 ft 463 kts 219°
2026-04-27 23:45 -20.87456 -45.07244 34062 ft 462 kts 220°
2026-04-27 23:45 -20.92634 -45.11318 34056 ft 462 kts 219°
2026-04-27 23:46 -20.97806 -45.15393 34056 ft 461 kts 220°
2026-04-27 23:46 -21.02969 -45.19462 34056 ft 461 kts 220°
2026-04-27 23:47 -21.08128 -45.23533 34057 ft 461 kts 220°
2026-04-27 23:47 -21.13267 -45.27592 34053 ft 461 kts 220°
2026-04-27 23:48 -21.18440 -45.31680 34046 ft 461 kts 220°
2026-04-27 23:48 -21.23601 -45.35763 34048 ft 461 kts 220°
2026-04-27 23:49 -21.28759 -45.39847 34047 ft 461 kts 220°
2026-04-27 23:49 -21.33912 -45.43931 34050 ft 461 kts 220°
2026-04-27 23:50 -21.39050 -45.48006 34057 ft 461 kts 220°
2026-04-27 23:50 -21.44229 -45.52118 34052 ft 462 kts 220°
2026-04-27 23:51 -21.49368 -45.56197 34054 ft 462 kts 220°
2026-04-27 23:51 -21.54569 -45.60274 34049 ft 462 kts 220°
2026-04-27 23:52 -21.59755 -45.64348 34058 ft 462 kts 220°
2026-04-27 23:52 -21.64966 -45.68445 34052 ft 462 kts 220°
2026-04-27 23:53 -21.70134 -45.72513 34054 ft 462 kts 220°
2026-04-27 23:53 -21.75327 -45.76602 34066 ft 463 kts 220°
2026-04-27 23:54 -21.80523 -45.80699 34066 ft 463 kts 220°
2026-04-27 23:54 -21.85696 -45.84781 34073 ft 463 kts 220°
2026-04-27 23:55 -21.90892 -45.88885 34073 ft 463 kts 220°
2026-04-27 23:55 -21.96075 -45.92983 34077 ft 462 kts 220°
2026-04-27 23:56 -22.01261 -45.97088 34081 ft 463 kts 221°
2026-04-27 23:56 -22.06446 -46.01194 34075 ft 462 kts 221°
2026-04-27 23:57 -22.11637 -46.05310 34081 ft 462 kts 221°
2026-04-27 23:57 -22.16798 -46.09405 34085 ft 462 kts 221°
2026-04-27 23:58 -22.21980 -46.13521 34090 ft 462 kts 221°
2026-04-27 23:58 -22.27137 -46.17621 34089 ft 461 kts 221°
2026-04-27 23:59 -22.32261 -46.21790 34088 ft 459 kts 224°
2026-04-27 23:59 -22.37207 -46.26155 34094 ft 459 kts 224°
2026-04-28 00:00 -22.42157 -46.30486 34083 ft 458 kts 224°
2026-04-28 00:00 -22.47110 -46.34822 34089 ft 459 kts 224°
2026-04-28 00:01 -22.52005 -46.39109 34100 ft 458 kts 224°
2026-04-28 00:01 -22.56944 -46.43439 34095 ft 457 kts 224°
2026-04-28 00:02 -22.61881 -46.47772 34078 ft 456 kts 224°
2026-04-28 00:02 -22.66793 -46.52086 34075 ft 456 kts 224°
2026-04-28 00:03 -22.71729 -46.56426 34079 ft 455 kts 224°
2026-04-28 00:03 -22.76629 -46.60739 34075 ft 454 kts 224°
2026-04-28 00:04 -22.83970 -46.67207 34077 ft 452 kts 224°
2026-04-28 00:05 -22.88814 -46.71480 34068 ft 451 kts 224°
2026-04-28 00:05 -22.93690 -46.75786 34073 ft 451 kts 225°
2026-04-28 00:06 -22.98549 -46.80080 34078 ft 449 kts 225°
2026-04-28 00:06 -23.03396 -46.84368 34089 ft 449 kts 225°
2026-04-28 00:07 -23.08197 -46.88619 34095 ft 447 kts 225°
2026-04-28 00:07 -23.13220 -46.92692 34079 ft 454 kts 212°
2026-04-28 00:08 -23.18837 -46.95813 34098 ft 455 kts 213°
2026-04-28 00:08 -23.24492 -46.98969 34095 ft 455 kts 213°
2026-04-28 00:09 -23.30130 -47.02108 34076 ft 456 kts 213°
2026-04-28 00:09 -23.35754 -47.05242 34074 ft 457 kts 213°
2026-04-28 00:10 -23.41423 -47.08404 34071 ft 457 kts 213°
2026-04-28 00:10 -23.47067 -47.11556 34072 ft 458 kts 213°
2026-04-28 00:11 -23.52754 -47.14734 34076 ft 459 kts 213°
2026-04-28 00:11 -23.58457 -47.17925 34075 ft 461 kts 213°
2026-04-28 00:12 -23.64152 -47.21114 34082 ft 462 kts 213°
2026-04-28 00:12 -23.69892 -47.24333 34081 ft 463 kts 213°
2026-04-28 00:13 -23.75601 -47.27537 34077 ft 464 kts 213°
2026-04-28 00:13 -23.81382 -47.30784 34078 ft 464 kts 213°
2026-04-28 00:14 -23.87118 -47.34010 34078 ft 464 kts 213°
2026-04-28 00:14 -23.92838 -47.37229 34078 ft 464 kts 213°
2026-04-28 00:15 -23.98565 -47.40456 34066 ft 463 kts 213°
2026-04-28 00:15 -24.04302 -47.43692 34069 ft 463 kts 213°
2026-04-28 00:16 -24.09998 -47.46922 34067 ft 462 kts 216°
2026-04-28 00:16 -24.15378 -47.50701 34056 ft 459 kts 218°
2026-04-28 00:17 -24.20759 -47.54431 34059 ft 460 kts 218°
2026-04-28 00:17 -24.26162 -47.58157 34058 ft 459 kts 218°
2026-04-28 00:18 -24.31577 -47.61894 34053 ft 459 kts 218°
2026-04-28 00:18 -24.36986 -47.65630 34053 ft 460 kts 218°
2026-04-28 00:19 -24.42350 -47.69446 34040 ft 454 kts 225°
2026-04-28 00:19 -24.47192 -47.73833 34050 ft 453 kts 226°
2026-04-28 00:20 -24.52039 -47.78253 34047 ft 453 kts 226°
2026-04-28 00:20 -24.56870 -47.82667 34048 ft 452 kts 226°
2026-04-28 00:21 -24.61669 -47.87056 34048 ft 452 kts 226°
2026-04-28 00:21 -24.66504 -47.91483 34053 ft 452 kts 226°
2026-04-28 00:22 -24.71334 -47.95910 34058 ft 452 kts 226°
2026-04-28 00:22 -24.76152 -48.00331 34055 ft 452 kts 226°
2026-04-28 00:23 -24.80987 -48.04772 34058 ft 452 kts 226°
2026-04-28 00:23 -24.85786 -48.09186 34062 ft 451 kts 226°
2026-04-28 00:24 -24.90610 -48.13626 34061 ft 452 kts 226°
2026-04-28 00:24 -24.95437 -48.18073 34058 ft 452 kts 226°
2026-04-28 00:25 -25.00237 -48.22501 34070 ft 452 kts 227°
2026-04-28 00:25 -25.05051 -48.26946 34061 ft 451 kts 227°
2026-04-28 00:26 -25.09859 -48.31389 34054 ft 450 kts 227°
2026-04-28 00:26 -25.14665 -48.35837 34066 ft 450 kts 227°
2026-04-28 00:27 -25.19417 -48.40239 34059 ft 449 kts 227°
2026-04-28 00:27 -25.24204 -48.44678 34057 ft 447 kts 227°
2026-04-28 00:28 -25.28937 -48.49072 34067 ft 445 kts 227°
2026-04-28 00:28 -25.33674 -48.53473 34053 ft 442 kts 228°
2026-04-28 00:29 -25.37578 -48.57105 34063 ft 441 kts 228°
2026-04-28 00:29 -25.42280 -48.61483 34060 ft 439 kts 228°
2026-04-28 00:30 -25.46940 -48.65826 34059 ft 438 kts 228°
2026-04-28 00:30 -25.51582 -48.70157 34071 ft 437 kts 228°
2026-04-28 00:31 -25.56244 -48.74512 34076 ft 437 kts 228°
2026-04-28 00:31 -25.60867 -48.78834 34084 ft 436 kts 228°
2026-04-28 00:32 -25.65496 -48.83166 34085 ft 434 kts 229°
2026-04-28 00:32 -25.70098 -48.87479 34087 ft 436 kts 229°
2026-04-28 00:33 -25.74721 -48.91814 34101 ft 434 kts 229°
2026-04-28 00:33 -25.79347 -48.96157 34115 ft 434 kts 229°
2026-04-28 00:34 -25.83940 -49.00473 34091 ft 433 kts 229°
2026-04-28 00:34 -25.88545 -49.04807 34092 ft 432 kts 229°
2026-04-28 00:35 -25.93101 -49.09099 34093 ft 431 kts 229°
2026-04-28 00:35 -25.97678 -49.13413 34094 ft 430 kts 229°
2026-04-28 00:36 -26.02243 -49.17722 34101 ft 429 kts 229°
2026-04-28 00:36 -26.06767 -49.21994 34100 ft 428 kts 229°
2026-04-28 00:37 -26.11296 -49.26275 34098 ft 427 kts 229°
2026-04-28 00:37 -26.15839 -49.30563 34104 ft 426 kts 229°
2026-04-28 00:38 -26.20336 -49.34809 34102 ft 425 kts 230°
2026-04-28 00:38 -26.24854 -49.39079 34099 ft 424 kts 230°
2026-04-28 00:39 -26.29338 -49.43322 34102 ft 424 kts 230°
2026-04-28 00:39 -26.33844 -49.47589 34105 ft 423 kts 230°
2026-04-28 00:40 -26.38325 -49.51838 34104 ft 423 kts 230°
2026-04-28 00:40 -26.42769 -49.56057 34107 ft 422 kts 230°
2026-04-28 00:41 -26.47248 -49.60313 34104 ft 422 kts 230°
2026-04-28 00:41 -26.51721 -49.64567 34105 ft 421 kts 230°
2026-04-28 00:42 -26.56154 -49.68789 34111 ft 421 kts 230°
2026-04-28 00:42 -26.60618 -49.73044 34106 ft 421 kts 230°
2026-04-28 00:43 -26.65066 -49.77289 34109 ft 420 kts 231°
2026-04-28 00:43 -26.69501 -49.81524 34099 ft 420 kts 231°
2026-04-28 00:44 -26.73945 -49.85775 34118 ft 420 kts 231°
2026-04-28 00:44 -26.78384 -49.90023 34117 ft 420 kts 231°
2026-04-28 00:45 -26.82832 -49.94287 34117 ft 420 kts 231°
2026-04-28 00:45 -26.87270 -49.98544 34120 ft 420 kts 231°
2026-04-28 00:46 -26.91710 -50.02807 34132 ft 420 kts 231°
2026-04-28 00:46 -26.96131 -50.07057 34158 ft 421 kts 232°
2026-04-28 00:47 -27.00582 -50.11342 34119 ft 420 kts 231°
2026-04-28 00:47 -27.05021 -50.15619 34143 ft 421 kts 231°
2026-04-28 00:48 -27.09447 -50.19888 34130 ft 421 kts 232°
2026-04-28 00:48 -27.13892 -50.24179 34147 ft 422 kts 232°
2026-04-28 00:49 -27.18342 -50.28482 34126 ft 422 kts 232°
2026-04-28 00:49 -27.22790 -50.32786 34148 ft 422 kts 232°
2026-04-28 00:50 -27.27240 -50.37096 34141 ft 421 kts 232°
2026-04-28 00:50 -27.31654 -50.41376 34138 ft 421 kts 232°
2026-04-28 00:51 -27.36030 -50.45624 34144 ft 420 kts 232°
2026-04-28 00:51 -27.40453 -50.49923 34143 ft 421 kts 232°
2026-04-28 00:52 -27.44900 -50.54250 34148 ft 421 kts 232°
2026-04-28 00:52 -27.49336 -50.58571 34140 ft 421 kts 232°
2026-04-28 00:53 -27.53763 -50.62888 34142 ft 421 kts 232°
2026-04-28 00:53 -27.58170 -50.67191 34148 ft 421 kts 232°
2026-04-28 00:54 -27.62590 -50.71510 34151 ft 420 kts 232°
2026-04-28 00:54 -27.67020 -50.75844 34136 ft 420 kts 233°
2026-04-28 00:55 -27.71408 -50.80142 34136 ft 420 kts 233°
2026-04-28 00:55 -27.75810 -50.84458 34141 ft 420 kts 233°
2026-04-28 00:56 -27.80201 -50.88768 34145 ft 419 kts 233°
2026-04-28 00:56 -27.84618 -50.93110 34152 ft 418 kts 233°
2026-04-28 00:57 -27.88986 -50.97407 34157 ft 418 kts 233°
2026-04-28 00:57 -27.93381 -51.01736 34163 ft 417 kts 233°
2026-04-28 00:58 -27.97748 -51.06041 34166 ft 418 kts 233°
2026-04-28 00:58 -28.02111 -51.10348 34156 ft 416 kts 233°
2026-04-28 00:59 -28.06468 -51.14654 34160 ft 415 kts 233°
2026-04-28 00:59 -28.10809 -51.18949 34163 ft 415 kts 233°
2026-04-28 01:00 -28.15159 -51.23258 34166 ft 415 kts 234°
2026-04-28 01:00 -28.19506 -51.27568 34161 ft 414 kts 234°
2026-04-28 01:01 -28.23836 -51.31866 34172 ft 413 kts 234°
2026-04-28 01:01 -28.28144 -51.36147 34168 ft 413 kts 234°
2026-04-28 01:02 -28.32466 -51.40447 34175 ft 412 kts 234°
2026-04-28 01:02 -28.36756 -51.44720 34168 ft 411 kts 234°
2026-04-28 01:03 -28.41067 -51.49019 34169 ft 410 kts 234°
2026-04-28 01:03 -28.45330 -51.53275 34168 ft 409 kts 234°
2026-04-28 01:04 -28.49610 -51.57552 34167 ft 408 kts 234°
2026-04-28 01:04 -28.53860 -51.61803 34175 ft 407 kts 234°
2026-04-28 01:05 -28.58109 -51.66060 34165 ft 406 kts 234°
2026-04-28 01:05 -28.62339 -51.70301 34168 ft 406 kts 234°
2026-04-28 01:06 -28.66574 -51.74552 34169 ft 405 kts 235°
2026-04-28 01:06 -28.70789 -51.78789 34168 ft 404 kts 235°
2026-04-28 01:07 -28.75013 -51.83038 34159 ft 404 kts 235°
2026-04-28 01:07 -28.79196 -51.87251 34180 ft 404 kts 235°
2026-04-28 01:08 -28.83397 -51.91488 34167 ft 403 kts 235°
2026-04-28 01:08 -28.87600 -51.95731 34172 ft 402 kts 235°
2026-04-28 01:09 -28.91773 -51.99948 34170 ft 402 kts 235°
2026-04-28 01:09 -28.95965 -52.04189 34173 ft 402 kts 235°
2026-04-28 01:10 -29.00164 -52.08442 34164 ft 401 kts 235°
2026-04-28 01:10 -29.04336 -52.12672 34166 ft 401 kts 236°
2026-04-28 01:11 -29.08481 -52.16881 34166 ft 400 kts 236°
2026-04-28 01:11 -29.12626 -52.21092 34155 ft 397 kts 235°
2026-04-28 01:12 -29.16743 -52.25282 34157 ft 399 kts 236°
2026-04-28 01:12 -29.20913 -52.29530 34155 ft 399 kts 235°
2026-04-28 01:13 -29.25024 -52.33722 34147 ft 398 kts 236°
2026-04-28 01:13 -29.31222 -52.40052 34172 ft 398 kts 236°
2026-04-28 01:14 -29.35356 -52.44279 34163 ft 397 kts 236°
2026-04-28 01:14 -29.39484 -52.48506 34145 ft 396 kts 236°
2026-04-28 01:15 -29.43576 -52.52700 34175 ft 397 kts 236°
2026-04-28 01:15 -29.47713 -52.56945 34151 ft 397 kts 236°
2026-04-28 01:16 -29.51817 -52.61161 34158 ft 397 kts 236°
2026-04-28 01:16 -29.55236 -52.64677 34125 ft 397 kts 236°
2026-04-28 01:17 -29.60036 -52.69619 34170 ft 398 kts 236°
2026-04-28 01:17 -29.64125 -52.73834 34140 ft 395 kts 236°
2026-04-28 01:18 -29.67535 -52.77352 34145 ft 397 kts 236°
2026-04-28 01:18 -29.71634 -52.81586 34144 ft 396 kts 236°
2026-04-28 01:19 -29.75750 -52.85842 34138 ft 396 kts 236°
2026-04-28 01:19 -29.79830 -52.90067 34142 ft 396 kts 236°
2026-04-28 01:20 -29.83911 -52.94297 34142 ft 396 kts 236°
2026-04-28 01:20 -29.88019 -52.98560 34141 ft 396 kts 236°
2026-04-28 01:21 -29.92121 -53.02822 34139 ft 397 kts 236°
2026-04-28 01:21 -29.96218 -53.07082 34141 ft 397 kts 235°
2026-04-28 01:22 -30.00323 -53.11357 34143 ft 398 kts 235°
2026-04-28 01:22 -30.04414 -53.15623 34142 ft 398 kts 235°
2026-04-28 01:23 -30.08529 -53.19917 34136 ft 399 kts 235°
2026-04-28 01:23 -30.12671 -53.24246 34143 ft 400 kts 234°
2026-04-28 01:24 -30.16772 -53.28537 34143 ft 400 kts 234°
2026-04-28 01:24 -30.20915 -53.32876 34143 ft 401 kts 234°
2026-04-28 01:25 -30.25054 -53.37216 34147 ft 402 kts 234°
2026-04-28 01:25 -30.29175 -53.41544 34136 ft 402 kts 234°
2026-04-28 01:26 -30.33336 -53.45917 34140 ft 403 kts 233°
2026-04-28 01:26 -30.37461 -53.50259 34143 ft 403 kts 233°
2026-04-28 01:27 -30.41597 -53.54617 34148 ft 403 kts 233°
2026-04-28 01:27 -30.45755 -53.59003 34151 ft 404 kts 233°
2026-04-28 01:28 -30.49889 -53.63370 34145 ft 404 kts 233°
2026-04-28 01:28 -30.54040 -53.67759 34145 ft 404 kts 232°
2026-04-28 01:29 -30.58189 -53.72152 34149 ft 404 kts 232°
2026-04-28 01:29 -30.62356 -53.76569 34150 ft 404 kts 232°
2026-04-28 01:30 -30.66503 -53.80972 34152 ft 405 kts 232°
2026-04-28 01:30 -30.70663 -53.85392 34146 ft 405 kts 232°
2026-04-28 01:31 -30.74816 -53.89810 34146 ft 406 kts 231°
2026-04-28 01:31 -30.78973 -53.94239 34144 ft 406 kts 231°
2026-04-28 01:32 -30.83161 -53.98706 34152 ft 407 kts 231°
2026-04-28 01:32 -30.87308 -54.03134 34149 ft 407 kts 231°
2026-04-28 01:33 -30.91469 -54.07584 34146 ft 407 kts 231°
2026-04-28 01:33 -30.95642 -54.12050 34143 ft 407 kts 231°
2026-04-28 01:34 -30.99828 -54.16536 34148 ft 407 kts 230°
2026-04-28 01:34 -31.03985 -54.20995 34140 ft 407 kts 230°
2026-04-28 01:35 -31.08149 -54.25468 34144 ft 407 kts 230°
2026-04-28 01:35 -31.12318 -54.29951 34138 ft 407 kts 230°
2026-04-28 01:36 -31.16475 -54.34427 34144 ft 406 kts 230°
2026-04-28 01:36 -31.20615 -54.38891 34143 ft 406 kts 230°
2026-04-28 01:37 -31.24760 -54.43365 34146 ft 405 kts 230°
2026-04-28 01:37 -31.28898 -54.47838 34140 ft 405 kts 230°
2026-04-28 01:38 -31.33035 -54.52315 34140 ft 404 kts 230°
2026-04-28 01:38 -31.37140 -54.56762 34137 ft 404 kts 230°
2026-04-28 01:39 -31.41272 -54.61244 34139 ft 404 kts 230°
2026-04-28 01:39 -31.45387 -54.65703 34126 ft 404 kts 230°
2026-04-28 01:40 -31.49529 -54.70162 34134 ft 404 kts 230°
2026-04-28 01:40 -31.53653 -54.74602 34135 ft 403 kts 230°
2026-04-28 01:41 -31.57797 -54.79069 34139 ft 403 kts 230°
2026-04-28 01:41 -31.61919 -54.83518 34135 ft 403 kts 230°
2026-04-28 01:42 -31.66048 -54.87979 34130 ft 403 kts 230°
2026-04-28 01:42 -31.70152 -54.92420 34134 ft 403 kts 230°
2026-04-28 01:43 -31.74281 -54.96893 34133 ft 402 kts 230°
2026-04-28 01:43 -31.78378 -55.01336 34137 ft 402 kts 230°
2026-04-28 01:44 -31.82477 -55.05788 34139 ft 401 kts 230°
2026-04-28 01:44 -31.86588 -55.10259 34128 ft 401 kts 230°
2026-04-28 01:45 -31.90685 -55.14719 34132 ft 400 kts 230°
2026-04-28 01:45 -31.94770 -55.19173 34133 ft 400 kts 230°
2026-04-28 01:46 -31.98846 -55.23622 34129 ft 400 kts 230°
2026-04-28 01:46 -32.02914 -55.28069 34129 ft 399 kts 230°
2026-04-28 01:47 -32.06987 -55.32525 34130 ft 399 kts 230°
2026-04-28 01:47 -32.11023 -55.36948 34131 ft 398 kts 230°
2026-04-28 01:48 -32.15090 -55.41409 34120 ft 398 kts 230°
2026-04-28 01:48 -32.19138 -55.45857 34119 ft 398 kts 230°
2026-04-28 01:49 -32.23183 -55.50306 34122 ft 398 kts 230°
2026-04-28 01:49 -32.27241 -55.54776 34124 ft 397 kts 230°
2026-04-28 01:50 -32.31259 -55.59206 34120 ft 397 kts 230°
2026-04-28 01:50 -32.35293 -55.63661 34117 ft 397 kts 230°
2026-04-28 01:51 -32.39331 -55.68125 34123 ft 396 kts 229°
2026-04-28 01:51 -32.43363 -55.72588 34120 ft 396 kts 229°
2026-04-28 01:52 -32.47379 -55.77040 34117 ft 395 kts 229°
2026-04-28 01:52 -32.51374 -55.81473 34118 ft 395 kts 229°
2026-04-28 01:53 -32.55380 -55.85925 34120 ft 395 kts 229°
2026-04-28 01:53 -32.59386 -55.90382 34119 ft 394 kts 229°
2026-04-28 01:54 -32.63383 -55.94836 34120 ft 393 kts 229°
2026-04-28 01:54 -32.67364 -55.99276 34120 ft 393 kts 229°
2026-04-28 01:55 -32.71332 -56.03709 34122 ft 392 kts 229°
2026-04-28 01:55 -32.75305 -56.08152 34117 ft 392 kts 229°
2026-04-28 01:56 -32.79277 -56.12600 34113 ft 392 kts 229°
2026-04-28 01:56 -32.83230 -56.17033 34121 ft 391 kts 229°
2026-04-28 01:57 -32.87189 -56.21476 34116 ft 391 kts 229°
2026-04-28 01:57 -32.91140 -56.25917 34117 ft 391 kts 229°
2026-04-28 01:58 -32.95079 -56.30349 34117 ft 390 kts 229°
2026-04-28 01:58 -32.99030 -56.34812 34119 ft 390 kts 229°
2026-04-28 01:59 -33.02942 -56.39248 34117 ft 390 kts 229°
2026-04-28 01:59 -33.06883 -56.43720 34118 ft 390 kts 229°
2026-04-28 02:00 -33.10801 -56.48170 34114 ft 389 kts 229°
2026-04-28 02:00 -33.14697 -56.52603 34117 ft 389 kts 229°
2026-04-28 02:01 -33.18618 -56.57067 34123 ft 389 kts 229°
2026-04-28 02:01 -33.22538 -56.61533 34118 ft 388 kts 229°
2026-04-28 02:02 -33.26432 -56.65975 34117 ft 388 kts 229°
2026-04-28 02:02 -33.30339 -56.70438 34117 ft 388 kts 229°
2026-04-28 02:03 -33.34237 -56.74897 34118 ft 388 kts 229°
2026-04-28 02:03 -33.38107 -56.79328 33980 ft 382 kts 229°
2026-04-28 02:04 -33.40055 -56.81562 33336 ft 388 kts 229°
2026-04-28 02:04 -33.41342 -56.83038 33034 ft 390 kts 229°
2026-04-28 02:04 -33.43967 -56.86051 32716 ft 394 kts 229°
2026-04-28 02:04 -33.45943 -56.88321 32513 ft 396 kts 229°
2026-04-28 02:05 -33.47919 -56.90591 32215 ft 395 kts 229°
2026-04-28 02:05 -33.49237 -56.92108 31887 ft 393 kts 229°
2026-04-28 02:05 -33.51848 -56.95112 31135 ft 388 kts 229°
2026-04-28 02:05 -33.53797 -56.97356 30609 ft 385 kts 229°
2026-04-28 02:06 -33.55712 -56.99564 30100 ft 382 kts 229°
2026-04-28 02:06 -33.56992 -57.01040 29708 ft 380 kts 229°
2026-04-28 02:06 -33.58885 -57.03224 29194 ft 376 kts 229°
2026-04-28 02:06 -33.60748 -57.05374 28718 ft 372 kts 229°
2026-04-28 02:07 -33.62615 -57.07531 28244 ft 368 kts 229°
2026-04-28 02:07 -33.64442 -57.09643 27778 ft 364 kts 229°
2026-04-28 02:07 -33.66267 -57.11754 27323 ft 361 kts 229°
2026-04-28 02:07 -33.68055 -57.13823 26887 ft 358 kts 229°
2026-04-28 02:08 -33.69852 -57.15903 26428 ft 355 kts 230°
2026-04-28 02:08 -33.71618 -57.17950 25995 ft 352 kts 230°
2026-04-28 02:08 -33.73379 -57.19993 25560 ft 354 kts 230°
2026-04-28 02:08 -33.75153 -57.22051 25118 ft 358 kts 230°
2026-04-28 02:09 -33.76950 -57.24136 24686 ft 361 kts 230°
2026-04-28 02:09 -33.78769 -57.26250 24248 ft 360 kts 230°
2026-04-28 02:09 -33.80561 -57.28332 23825 ft 359 kts 230°
2026-04-28 02:09 -33.82354 -57.30417 23345 ft 358 kts 230°
2026-04-28 02:10 -33.84139 -57.32494 22882 ft 356 kts 230°
2026-04-28 02:10 -33.85919 -57.34565 22454 ft 354 kts 229°
2026-04-28 02:10 -33.87677 -57.36613 22041 ft 352 kts 229°
2026-04-28 02:10 -33.89428 -57.38655 21597 ft 351 kts 229°
2026-04-28 02:11 -33.91183 -57.40702 21167 ft 348 kts 229°
2026-04-28 02:11 -33.92908 -57.42715 20799 ft 344 kts 229°
2026-04-28 02:11 -33.94603 -57.44695 20429 ft 341 kts 229°
2026-04-28 02:11 -33.96304 -57.46682 20055 ft 338 kts 229°
2026-04-28 02:12 -33.97978 -57.48640 19684 ft 335 kts 229°
2026-04-28 02:12 -33.99646 -57.50591 19321 ft 333 kts 229°
2026-04-28 02:12 -34.01315 -57.52545 18954 ft 330 kts 229°
2026-04-28 02:12 -34.02946 -57.54454 18600 ft 328 kts 229°
2026-04-28 02:13 -34.04573 -57.56360 18221 ft 326 kts 229°
2026-04-28 02:13 -34.06201 -57.58268 17833 ft 323 kts 229°
2026-04-28 02:13 -34.07790 -57.60133 17477 ft 319 kts 229°
2026-04-28 02:13 -34.09374 -57.61992 17129 ft 317 kts 229°
2026-04-28 02:14 -34.10971 -57.63868 16774 ft 322 kts 229°
2026-04-28 02:14 -34.12581 -57.65759 16425 ft 325 kts 228°
2026-04-28 02:14 -34.14200 -57.67662 16080 ft 325 kts 228°
2026-04-28 02:14 -34.15814 -57.69562 15742 ft 324 kts 228°
2026-04-28 02:15 -34.19037 -57.73356 15046 ft 321 kts 228°
2026-04-28 02:15 -34.20628 -57.75231 14702 ft 320 kts 227°
2026-04-28 02:15 -34.22211 -57.77097 14363 ft 319 kts 227°
2026-04-28 02:16 -34.23808 -57.78982 14001 ft 317 kts 227°
2026-04-28 02:16 -34.25372 -57.80827 13636 ft 314 kts 227°
2026-04-28 02:16 -34.26921 -57.82657 13277 ft 311 kts 227°
2026-04-28 02:16 -34.28454 -57.84467 12931 ft 308 kts 227°
2026-04-28 02:17 -34.29988 -57.86281 12604 ft 304 kts 227°
2026-04-28 02:17 -34.31481 -57.88048 12271 ft 301 kts 227°
2026-04-28 02:17 -34.32978 -57.89820 11942 ft 297 kts 227°
2026-04-28 02:17 -34.34440 -57.91550 11620 ft 295 kts 227°
2026-04-28 02:18 -34.35922 -57.93306 11299 ft 299 kts 226°
2026-04-28 02:18 -34.37410 -57.95070 10982 ft 302 kts 226°
2026-04-28 02:18 -34.38906 -57.96843 10819 ft 294 kts 226°
2026-04-28 02:18 -34.40341 -57.98546 10701 ft 285 kts 226°
2026-04-28 02:19 -34.41836 -58.00050 10539 ft 279 kts 211°
2026-04-28 02:19 -34.43592 -58.00943 10415 ft 272 kts 206°
2026-04-28 02:19 -34.45331 -58.01801 10298 ft 262 kts 206°
2026-04-28 02:19 -34.46988 -58.02610 10173 ft 254 kts 206°
2026-04-28 02:20 -34.48597 -58.03389 9968 ft 249 kts 205°
2026-04-28 02:20 -34.50209 -58.04166 9680 ft 247 kts 205°
2026-04-28 02:20 -34.51732 -58.04899 9411 ft 252 kts 205°
2026-04-28 02:20 -34.53391 -58.05696 9134 ft 257 kts 205°
2026-04-28 02:21 -34.55049 -58.06492 8860 ft 258 kts 205°
2026-04-28 02:21 -34.56711 -58.07289 8586 ft 258 kts 205°
2026-04-28 02:21 -34.58394 -58.08098 8311 ft 259 kts 205°
2026-04-28 02:21 -34.60057 -58.08897 8039 ft 259 kts 205°
2026-04-28 02:22 -34.61722 -58.09697 7764 ft 258 kts 205°
2026-04-28 02:22 -34.62526 -58.10083 7631 ft 258 kts 205°
2026-04-28 02:22 -34.64182 -58.10880 7356 ft 256 kts 205°
2026-04-28 02:22 -34.65851 -58.11682 7088 ft 254 kts 205°
2026-04-28 02:23 -34.67475 -58.12464 6808 ft 252 kts 205°
2026-04-28 02:23 -34.69092 -58.13243 6541 ft 250 kts 205°
2026-04-28 02:23 -34.70693 -58.14014 6261 ft 248 kts 205°
2026-04-28 02:23 -34.72302 -58.14789 5977 ft 245 kts 205°
2026-04-28 02:24 -34.73869 -58.15545 5710 ft 243 kts 205°
2026-04-28 02:24 -34.75443 -58.16304 5446 ft 240 kts 205°
2026-04-28 02:24 -34.77014 -58.17062 5183 ft 246 kts 205°
2026-04-28 02:24 -34.78613 -58.17834 4915 ft 251 kts 205°
2026-04-28 02:25 -34.80251 -58.18624 4689 ft 250 kts 204°
2026-04-28 02:25 -34.81836 -58.19391 4560 ft 241 kts 205°
2026-04-28 02:25 -34.83360 -58.20127 4431 ft 233 kts 205°
2026-04-28 02:25 -34.84800 -58.20957 4255 ft 223 kts 221°
2026-04-28 02:26 -34.85694 -58.22397 4016 ft 213 kts 250°
2026-04-28 02:26 -34.85933 -58.24123 3816 ft 205 kts 268°
2026-04-28 02:26 -34.85986 -58.25836 3697 ft 199 kts 268°
2026-04-28 02:26 -34.86020 -58.27473 3551 ft 191 kts 269°
2026-04-28 02:27 -34.86042 -58.29082 3396 ft 187 kts 269°
2026-04-28 02:27 -34.86057 -58.30617 3255 ft 177 kts 269°
2026-04-28 02:27 -34.86022 -58.32061 3111 ft 168 kts 278°
2026-04-28 02:27 -34.85804 -58.33428 2888 ft 161 kts 281°
2026-04-28 02:28 -34.85580 -58.34728 2626 ft 151 kts 280°
2026-04-28 02:28 -34.85369 -58.35942 2472 ft 146 kts 281°
2026-04-28 02:28 -34.85155 -58.37148 2373 ft 146 kts 281°
2026-04-28 02:28 -34.84939 -58.38367 2266 ft 146 kts 281°
2026-04-28 02:29 -34.84724 -58.39578 2138 ft 146 kts 280°
2026-04-28 02:29 -34.84510 -58.40782 1922 ft 146 kts 280°
2026-04-28 02:29 -34.84297 -58.41975 1682 ft 144 kts 280°
2026-04-28 02:29 -34.84084 -58.43170 1457 ft 145 kts 280°
2026-04-28 02:30 -34.83869 -58.44376 1243 ft 145 kts 280°
2026-04-28 02:30 -34.83655 -58.45569 1040 ft 145 kts 281°
2026-04-28 02:30 -34.83439 -58.46774 836 ft 146 kts 281°
2026-04-28 02:30 -34.83224 -58.47978 644 ft 147 kts 282°
2026-04-28 02:31 -34.82997 -58.49216 519 ft 154 kts 283°
2026-04-28 02:31 -34.82759 -58.50514 341 ft 162 kts 282°
2026-04-28 02:31 -34.82524 -58.51882 118 ft 156 kts 282°
2026-04-28 02:31 -34.82317 -58.53046 77 ft 118 kts 282°
2026-04-28 02:32 -34.82197 -58.53716 75 ft 48 kts 282°
2026-04-28 02:32 -34.82107 -58.53897 75 ft 16 kts 28°
2026-04-28 02:32 -34.82037 -58.53794 71 ft 17 kts 46°
2026-04-28 02:32 -34.81965 -58.53706 69 ft 9 kts 45°
2026-04-28 02:33 -34.81917 -58.53647 71 ft 11 kts 45°
2026-04-28 02:33 -34.81859 -58.53577 73 ft 13 kts 45°
2026-04-28 02:33 -34.81791 -58.53494 70 ft 15 kts 45°
2026-04-28 02:33 -34.81714 -58.53400 71 ft 17 kts 45°
2026-04-28 02:34 -34.81629 -58.53296 75 ft 18 kts 45°
2026-04-28 02:34 -34.81548 -58.53228 69 ft 14 kts 348°
2026-04-28 02:34 -34.81484 -58.53316 77 ft 15 kts 299°
2026-04-28 02:34 -34.81431 -58.53433 72 ft 17 kts 298°
2026-04-28 02:35 -34.81378 -58.53553 76 ft 14 kts 298°
2026-04-28 02:35 -34.81304 -58.53588 74 ft 10 kts
2026-04-28 02:35 -34.81276 -58.53628 72 ft 6 kts 255°
2026-04-28 02:35 -34.81289 -58.53667 75 ft 4 kts 245°
2026-04-28 02:36 -34.81299 -58.53692 67 ft 2 kts 243°
2026-04-28 02:36 -34.81303 -58.53702 67 ft 0 kts 244°